User: anonymous   Login
Location: Maiden_LMO
(35.5760°N, 81.2120°W)
Time: 19:05:27
(UTC-04:00)
Language:

Cosmos 2278 Rocket - Orbit

View from above orbital plane
View from above orbital plane
View from above satellite
View from above satellite

Ground track
Ground track

The orbit data is extracted from the following two-line orbital elements,

1 23088U 94023B   14295.20761657 -.00000109  00000-0 -31731-4 0   547
2 23088 070.9980 155.7380 0002072 173.0606 321.4813 14.14585971 58515
Epoch (UTC): 22 October 2014 04:58:58
Eccentricity: 0.0002072
inclination: 70.9980°
perigee height: 842 km
apogee height: 845 km
right ascension of ascending node: 155.7380°
argument of perigee: 173.0606°
revolutions per day: 14.14585971
mean anomaly at epoch: 321.4813°
orbit number at epoch: 5851

The dashed part of the orbit path shows where the satellite is in the earth's shadow,  

DLR